Time,TemperatureF,DewpointF,PressureIn,WindDirection,WindDirectionDegrees,WindSpeedMPH,WindSpeedGustMPH,Humidity,HourlyPrecipIn,Conditions,Clouds,dailyrainin,SoftwareType,DateUTC
2013-02-19 00:02:00,38.0,-99.9,30.00,North,1,0.0,0.0,-999,0.01,,,0.00,,2013-02-19 08:02:00,
2013-02-19 00:11:00,38.0,-99.9,30.00,North,1,0.0,0.0,-999,0.01,,,0.00,,2013-02-19 08:11:00,
2013-02-19 00:22:00,38.0,-99.9,30.00,North,0,0.0,0.0,-999,0.01,,,0.00,,2013-02-19 08:22:00,
2013-02-19 00:32:00,38.0,-99.9,30.00,North,354,0.0,0.0,-999,0.00,,,0.00,,2013-02-19 08:32:00,
2013-02-19 00:42:00,38.0,-99.9,30.00,North,354,0.0,0.0,-999,0.00,,,0.00,,2013-02-19 08:42:00,
2013-02-19 00:52:00,38.0,-99.9,30.00,North,354,0.0,0.0,-999,0.00,,,0.00,,2013-02-19 08:52:00,
2013-02-19 01:02:00,37.0,-99.9,30.00,North,354,0.0,0.0,-999,0.00,,,0.00,,2013-02-19 09:02:00,
2013-02-19 01:11:00,37.0,-99.9,30.00,North,354,0.0,0.0,-999,0.00,,,0.00,,2013-02-19 09:11:00,
2013-02-19 01:22:00,38.0,-99.9,29.99,North,350,0.0,0.0,-999,0.00,,,0.00,,2013-02-19 09:22:00,
2013-02-19 01:32:00,38.0,-99.9,29.98,North,350,0.0,0.0,-999,0.00,,,0.00,,2013-02-19 09:32:00,
2013-02-19 01:42:00,38.0,-99.9,29.98,North,350,0.0,0.0,-999,0.00,,,0.00,,2013-02-19 09:42:00,
2013-02-19 01:53:00,37.0,-99.9,29.98,NNE,15,0.0,0.0,-999,0.00,,,0.00,,2013-02-19 09:53:00,
2013-02-19 02:02:00,37.0,-99.9,29.98,NNE,15,0.0,0.0,-999,0.00,,,0.00,,2013-02-19 10:02:00,
2013-02-19 02:11:00,37.0,-99.9,29.98,NNE,15,0.0,0.0,-999,0.00,,,0.00,,2013-02-19 10:11:00,
2013-02-19 02:22:00,38.0,-99.9,29.98,NNE,15,0.0,0.0,-999,0.00,,,0.00,,2013-02-19 10:22:00,
2013-02-19 02:32:00,38.0,-99.9,29.98,NNE,15,0.0,0.0,-999,0.00,,,0.00,,2013-02-19 10:32:00,
2013-02-19 02:42:00,38.0,-99.9,29.98,NNE,15,0.0,0.0,-999,0.00,,,0.00,,2013-02-19 10:42:00,
2013-02-19 02:52:00,38.0,-99.9,29.97,NNE,15,0.0,0.0,-999,0.00,,,0.00,,2013-02-19 10:52:00,
2013-02-19 03:01:00,38.0,-99.9,29.97,NNE,15,0.0,0.0,-999,0.00,,,0.00,,2013-02-19 11:01:00,
2013-02-19 03:12:00,37.0,-99.9,29.97,North,352,0.0,0.0,-999,0.00,,,0.00,,2013-02-19 11:12:00,
2013-02-19 03:22:00,37.0,-99.9,29.97,North,352,0.0,0.0,-999,0.00,,,0.00,,2013-02-19 11:22:00,
2013-02-19 03:32:00,37.0,-99.9,29.96,North,352,0.0,0.0,-999,0.00,,,0.00,,2013-02-19 11:32:00,
2013-02-19 03:42:00,37.0,-99.9,29.96,North,352,0.0,0.0,-999,0.00,,,0.00,,2013-02-19 11:42:00,
2013-02-19 03:52:00,37.0,-99.9,29.96,North,352,0.0,0.0,-999,0.00,,,0.00,,2013-02-19 11:52:00,
2013-02-19 04:02:00,37.0,-99.9,29.95,North,3,0.0,0.0,-999,0.00,,,0.00,,2013-02-19 12:02:00,
2013-02-19 04:12:00,37.0,-99.9,29.95,North,3,0.0,0.0,-999,0.00,,,0.00,,2013-02-19 12:12:00,
2013-02-19 04:22:00,37.0,-99.9,29.95,North,3,0.0,0.0,-999,0.00,,,0.00,,2013-02-19 12:22:00,
2013-02-19 04:33:00,37.0,-99.9,29.95,North,3,0.0,0.0,-999,0.00,,,0.00,,2013-02-19 12:33:00,
2013-02-19 04:42:00,37.0,-99.9,29.95,North,3,0.0,0.0,-999,0.00,,,0.00,,2013-02-19 12:42:00,
2013-02-19 04:53:00,36.0,-99.9,29.95,North,3,0.0,0.0,-999,0.00,,,0.00,,2013-02-19 12:53:00,
2013-02-19 05:02:00,36.0,-99.9,29.95,North,3,0.0,0.0,-999,0.00,,,0.00,,2013-02-19 13:02:00,
2013-02-19 05:11:00,36.0,-99.9,29.95,North,3,0.0,0.0,-999,0.00,,,0.00,,2013-02-19 13:11:00,
2013-02-19 05:22:00,36.0,-99.9,29.95,North,3,0.0,0.0,-999,0.00,,,0.00,,2013-02-19 13:22:00,
2013-02-19 05:32:00,37.0,-99.9,29.94,North,359,0.0,0.0,-999,0.00,,,0.00,,2013-02-19 13:32:00,
2013-02-19 05:42:00,37.0,-99.9,29.94,North,359,0.0,0.0,-999,0.00,,,0.00,,2013-02-19 13:42:00,
2013-02-19 05:52:00,37.0,-99.9,29.94,North,359,0.0,0.0,-999,0.00,,,0.00,,2013-02-19 13:52:00,
2013-02-19 06:02:00,37.0,-99.9,29.94,North,359,0.0,0.0,-999,0.00,,,0.00,,2013-02-19 14:02:00,
2013-02-19 06:12:00,37.0,-99.9,29.94,North,359,0.0,0.0,-999,0.00,,,0.00,,2013-02-19 14:12:00,
2013-02-19 06:22:00,37.0,-99.9,29.92,North,359,0.0,0.0,-999,0.00,,,0.00,,2013-02-19 14:22:00,
2013-02-19 06:33:00,37.0,-99.9,29.93,North,359,0.0,0.0,-999,0.01,,,0.00,,2013-02-19 14:33:00,
2013-02-19 06:42:00,37.0,-99.9,29.93,North,359,0.0,0.0,-999,0.01,,,0.00,,2013-02-19 14:42:00,
2013-02-19 06:52:00,37.0,-99.9,29.93,North,359,0.0,0.0,-999,0.01,,,0.00,,2013-02-19 14:52:00,
2013-02-19 07:02:00,38.0,-99.9,29.93,North,359,0.0,0.0,-999,0.01,,,0.00,,2013-02-19 15:02:00,
2013-02-19 07:11:00,38.0,-99.9,29.93,North,359,0.0,0.0,-999,0.01,,,0.00,,2013-02-19 15:11:00,
2013-02-19 07:22:00,37.0,-99.9,29.93,North,359,0.0,4.0,-999,0.01,,,0.00,,2013-02-19 15:22:00,
2013-02-19 07:32:00,37.0,-99.9,29.93,North,359,0.0,0.0,-999,0.01,,,0.00,,2013-02-19 15:32:00,
2013-02-19 07:42:00,37.0,-99.9,29.93,North,359,0.0,0.0,-999,0.01,,,0.00,,2013-02-19 15:42:00,
2013-02-19 07:52:00,37.0,-99.9,29.93,NW,311,0.0,0.0,-999,0.01,,,0.00,,2013-02-19 15:52:00,
2013-02-19 08:02:00,38.0,-99.9,29.92,NW,311,2.0,7.0,-999,0.01,,,0.00,,2013-02-19 16:02:00,
2013-02-19 08:12:00,38.0,-99.9,29.92,NW,311,2.0,7.0,-999,0.01,,,0.00,,2013-02-19 16:12:00,
2013-02-19 08:22:00,38.0,-99.9,29.92,NW,314,1.0,0.0,-999,0.01,,,0.00,,2013-02-19 16:22:00,
2013-02-19 08:32:00,38.0,-99.9,29.92,NW,314,1.0,0.0,-999,0.01,,,0.00,,2013-02-19 16:32:00,
2013-02-19 08:42:00,38.0,-99.9,29.92,NW,314,1.0,0.0,-999,0.01,,,0.00,,2013-02-19 16:42:00,
2013-02-19 08:52:00,39.0,-99.9,29.91,NW,305,2.0,0.0,-999,0.01,,,0.00,,2013-02-19 16:52:00,
2013-02-19 09:01:00,39.0,-99.9,29.91,NNW,338,6.0,6.0,-999,0.01,,,0.00,,2013-02-19 17:01:00,
2013-02-19 09:11:00,39.0,-99.9,29.91,NNW,338,6.0,6.0,-999,0.01,,,0.00,,2013-02-19 17:11:00,
2013-02-19 09:21:00,39.0,-99.9,29.90,NNW,332,7.0,7.0,-999,0.01,,,0.00,,2013-02-19 17:21:00,
2013-02-19 09:32:00,39.0,-99.9,29.90,NW,323,9.0,9.0,-999,0.01,,,0.00,,2013-02-19 17:32:00,
2013-02-19 09:42:00,39.0,-99.9,29.89,North,11,9.0,9.0,-999,0.01,,,0.00,,2013-02-19 17:42:00,
2013-02-19 09:52:00,39.0,-99.9,29.89,North,11,9.0,9.0,-999,0.01,,,0.00,,2013-02-19 17:52:00,
2013-02-19 10:02:00,39.0,-99.9,29.89,NW,308,1.0,7.0,-999,0.01,,,0.00,,2013-02-19 18:02:00,
2013-02-19 10:11:00,39.0,-99.9,29.89,NW,308,1.0,7.0,-999,0.01,,,0.00,,2013-02-19 18:11:00,
2013-02-19 10:22:00,39.0,-99.9,29.89,NW,308,1.0,7.0,-999,0.01,,,0.00,,2013-02-19 18:22:00,
2013-02-19 10:32:00,39.0,-99.9,29.87,North,359,5.0,6.0,-999,0.10,,,0.00,,2013-02-19 18:32:00,
2013-02-19 10:42:00,39.0,-99.9,29.84,NW,309,11.0,15.0,-999,0.10,,,0.00,,2013-02-19 18:42:00,
2013-02-19 10:52:00,39.0,-99.9,29.84,NW,309,11.0,15.0,-999,0.10,,,0.00,,2013-02-19 18:52:00,
2013-02-19 11:01:00,39.0,-99.9,29.85,WNW,301,13.0,13.0,-999,0.10,,,0.00,,2013-02-19 19:01:00,
2013-02-19 11:11:00,39.0,-99.9,29.85,WNW,301,13.0,13.0,-999,0.10,,,0.00,,2013-02-19 19:11:00,
2013-02-19 11:22:00,37.0,-99.9,29.84,North,359,13.0,22.0,-999,0.10,,,0.00,,2013-02-19 19:22:00,
2013-02-19 11:32:00,38.0,-99.9,29.85,North,353,13.0,13.0,-999,0.14,,,0.29,,2013-02-19 19:32:00,
2013-02-19 11:42:00,38.0,-99.9,29.85,North,353,13.0,13.0,-999,0.14,,,0.29,,2013-02-19 19:42:00,
2013-02-19 11:52:00,36.0,-99.9,29.85,North,4,4.0,5.0,-999,0.14,,,0.29,,2013-02-19 19:52:00,
2013-02-19 12:02:00,38.0,-99.9,29.84,NNE,20,4.0,0.0,-999,0.14,,,0.29,,2013-02-19 20:02:00,
2013-02-19 12:12:00,38.0,-99.9,29.84,NNE,20,4.0,0.0,-999,0.14,,,0.29,,2013-02-19 20:12:00,
2013-02-19 12:22:00,37.0,-99.9,29.84,NNE,25,3.0,0.0,-999,0.14,,,0.29,,2013-02-19 20:22:00,
2013-02-19 12:32:00,37.0,-99.9,29.84,North,1,3.0,5.0,-999,0.07,,,0.29,,2013-02-19 20:32:00,
2013-02-19 12:42:00,37.0,-99.9,29.84,North,1,3.0,5.0,-999,0.07,,,0.29,,2013-02-19 20:42:00,
2013-02-19 12:52:00,37.0,-99.9,29.83,NNE,14,0.0,0.0,-999,0.07,,,0.29,,2013-02-19 20:52:00,
2013-02-19 13:02:00,38.0,-99.9,29.81,North,1,7.0,7.0,-999,0.07,,,0.29,,2013-02-19 21:02:00,
2013-02-19 13:11:00,38.0,-99.9,29.81,North,1,7.0,7.0,-999,0.07,,,0.29,,2013-02-19 21:11:00,
2013-02-19 13:21:00,38.0,-99.9,29.81,North,1,7.0,7.0,-999,0.07,,,0.29,,2013-02-19 21:21:00,
2013-02-19 13:32:00,38.0,-99.9,29.81,North,11,6.0,0.0,-999,0.02,,,0.29,,2013-02-19 21:32:00,
2013-02-19 13:42:00,38.0,-99.9,29.81,North,11,6.0,0.0,-999,0.02,,,0.29,,2013-02-19 21:42:00,
2013-02-19 13:52:00,38.0,-99.9,29.80,North,3,4.0,4.0,-999,0.02,,,0.29,,2013-02-19 21:52:00,
2013-02-19 14:02:00,39.0,-99.9,29.80,NNE,14,9.0,10.0,-999,0.02,,,0.29,,2013-02-19 22:02:00,
2013-02-19 14:11:00,39.0,-99.9,29.80,NNE,14,9.0,10.0,-999,0.02,,,0.29,,2013-02-19 22:11:00,
2013-02-19 14:22:00,40.0,-99.9,29.79,NNW,347,2.0,5.0,-999,0.02,,,0.29,,2013-02-19 22:22:00,
2013-02-19 14:32:00,39.0,-99.9,29.79,North,359,0.0,6.0,-999,0.00,,,0.29,,2013-02-19 22:32:00,
2013-02-19 14:42:00,39.0,-99.9,29.79,North,359,0.0,6.0,-999,0.00,,,0.29,,2013-02-19 22:42:00,
2013-02-19 14:52:00,41.0,-99.9,29.79,North,8,3.0,12.0,-999,0.00,,,0.29,,2013-02-19 22:52:00,
2013-02-19 15:01:00,41.0,-99.9,29.78,North,8,1.0,7.0,-999,0.00,,,0.29,,2013-02-19 23:01:00,
2013-02-19 15:11:00,41.0,-99.9,29.78,North,8,1.0,7.0,-999,0.00,,,0.29,,2013-02-19 23:11:00,
2013-02-19 15:21:00,41.0,-99.9,29.78,North,8,1.0,7.0,-999,0.00,,,0.29,,2013-02-19 23:21:00,
2013-02-19 15:32:00,41.0,-99.9,29.78,North,8,1.0,7.0,-999,0.00,,,0.29,,2013-02-19 23:32:00,
2013-02-19 15:42:00,41.0,-99.9,29.78,North,8,1.0,7.0,-999,0.00,,,0.29,,2013-02-19 23:42:00,
2013-02-19 15:52:00,39.0,-99.9,29.78,North,350,9.0,10.0,-999,0.00,,,0.29,,2013-02-19 23:52:00,
2013-02-19 16:02:00,39.0,-99.9,29.78,NNE,21,2.0,4.0,-999,0.00,,,0.29,,2013-02-20 00:02:00,
2013-02-19 16:12:00,39.0,-99.9,29.78,NNE,21,2.0,4.0,-999,0.00,,,0.29,,2013-02-20 00:12:00,
2013-02-19 16:22:00,38.0,-99.9,29.78,North,1,2.0,6.0,-999,0.00,,,0.29,,2013-02-20 00:22:00,
2013-02-19 16:32:00,36.0,-99.9,29.77,North,1,8.0,8.0,-999,0.00,,,0.29,,2013-02-20 00:32:00,
2013-02-19 16:42:00,36.0,-99.9,29.77,North,1,8.0,8.0,-999,0.00,,,0.29,,2013-02-20 00:42:00,
2013-02-19 16:52:00,37.0,-99.9,29.73,NE,39,0.0,0.0,-999,0.00,,,0.29,,2013-02-20 00:52:00,
2013-02-19 17:02:00,36.0,-99.9,29.76,North,350,2.0,0.0,-999,0.00,,,0.29,,2013-02-20 01:02:00,
2013-02-19 17:11:00,36.0,-99.9,29.76,North,350,2.0,0.0,-999,0.00,,,0.29,,2013-02-20 01:11:00,
2013-02-19 17:22:00,36.0,-99.9,29.77,ENE,60,4.0,4.0,-999,0.00,,,0.29,,2013-02-20 01:22:00,
2013-02-19 17:32:00,36.0,-99.9,29.77,North,8,1.0,7.0,-999,0.00,,,0.29,,2013-02-20 01:32:00,
2013-02-19 17:42:00,36.0,-99.9,29.77,North,8,1.0,7.0,-999,0.00,,,0.29,,2013-02-20 01:42:00,
2013-02-19 17:52:00,35.0,-99.9,29.77,North,4,1.0,0.0,-999,0.00,,,0.29,,2013-02-20 01:52:00,
2013-02-19 18:02:00,35.0,-99.9,29.77,NNE,32,6.0,6.0,-999,0.00,,,0.29,,2013-02-20 02:02:00,
2013-02-19 18:11:00,35.0,-99.9,29.77,NNE,32,6.0,6.0,-999,0.00,,,0.29,,2013-02-20 02:11:00,
2013-02-19 18:22:00,34.0,-99.9,29.78,NNE,30,1.0,0.0,-999,0.00,,,0.29,,2013-02-20 02:22:00,
2013-02-19 18:32:00,34.0,-99.9,29.75,North,10,2.0,5.0,-999,0.00,,,0.29,,2013-02-20 02:32:00,
2013-02-19 18:42:00,34.0,-99.9,29.75,North,10,2.0,5.0,-999,0.00,,,0.29,,2013-02-20 02:42:00,
2013-02-19 18:52:00,32.0,-99.9,29.78,NNE,14,0.0,0.0,-999,0.00,,,0.29,,2013-02-20 02:52:00,
2013-02-19 19:02:00,33.0,-99.9,29.78,NNE,14,0.0,0.0,-999,0.00,,,0.29,,2013-02-20 03:02:00,
2013-02-19 19:12:00,33.0,-99.9,29.78,NNE,14,0.0,0.0,-999,0.00,,,0.29,,2013-02-20 03:12:00,
2013-02-19 19:22:00,33.0,-99.9,29.79,NNE,14,0.0,0.0,-999,0.00,,,0.29,,2013-02-20 03:22:00,
2013-02-19 19:32:00,33.0,-99.9,29.78,NNE,14,0.0,0.0,-999,0.00,,,0.29,,2013-02-20 03:32:00,
2013-02-19 19:42:00,33.0,-99.9,29.78,NNE,14,0.0,0.0,-999,0.00,,,0.29,,2013-02-20 03:42:00,
2013-02-19 19:52:00,33.0,-99.9,29.78,North,6,0.0,6.0,-999,0.00,,,0.29,,2013-02-20 03:52:00,
2013-02-19 20:02:00,33.0,-99.9,29.78,North,0,0.0,0.0,-999,0.00,,,0.29,,2013-02-20 04:02:00,
2013-02-19 20:11:00,33.0,-99.9,29.78,North,0,0.0,0.0,-999,0.00,,,0.29,,2013-02-20 04:11:00,
2013-02-19 20:22:00,33.0,-99.9,29.77,NE,55,4.0,5.0,-999,0.00,,,0.29,,2013-02-20 04:22:00,
2013-02-19 20:32:00,33.0,-99.9,29.78,NNE,27,0.0,3.0,-999,0.00,,,0.29,,2013-02-20 04:32:00,
2013-02-19 20:42:00,33.0,-99.9,29.78,NNE,27,0.0,3.0,-999,0.00,,,0.29,,2013-02-20 04:42:00,
2013-02-19 20:52:00,33.0,-99.9,29.79,ENE,63,0.0,0.0,-999,0.00,,,0.29,,2013-02-20 04:52:00,
2013-02-19 21:02:00,33.0,-99.9,29.78,NNE,13,4.0,0.0,-999,0.00,,,0.29,,2013-02-20 05:02:00,
2013-02-19 21:12:00,33.0,-99.9,29.78,NNE,13,4.0,0.0,-999,0.00,,,0.29,,2013-02-20 05:12:00,
2013-02-19 21:22:00,33.0,-99.9,29.78,NNE,13,4.0,0.0,-999,0.00,,,0.29,,2013-02-20 05:22:00,
2013-02-19 21:32:00,33.0,-99.9,29.77,ENE,75,5.0,0.0,-999,0.00,,,0.29,,2013-02-20 05:32:00,
2013-02-19 21:43:00,33.0,-99.9,29.77,ENE,75,5.0,0.0,-999,0.00,,,0.29,,2013-02-20 05:43:00,
2013-02-19 21:52:00,33.0,-99.9,29.76,ENE,75,0.0,0.0,-999,0.00,,,0.29,,2013-02-20 05:52:00,
2013-02-19 22:02:00,33.0,-99.9,29.79,NE,55,2.0,0.0,-999,0.00,,,0.29,,2013-02-20 06:02:00,
2013-02-19 22:11:00,33.0,-99.9,29.80,NE,49,0.0,0.0,-999,0.00,,,0.29,,2013-02-20 06:11:00,
2013-02-19 22:22:00,33.0,-99.9,29.80,NE,49,0.0,0.0,-999,0.00,,,0.29,,2013-02-20 06:22:00,
2013-02-19 22:32:00,33.0,-99.9,29.82,NE,49,0.0,0.0,-999,0.00,,,0.29,,2013-02-20 06:32:00,
2013-02-19 22:42:00,33.0,-99.9,29.82,NE,49,0.0,0.0,-999,0.00,,,0.29,,2013-02-20 06:42:00,
2013-02-19 22:52:00,33.0,-99.9,29.82,NNE,18,0.0,0.0,-999,0.00,,,0.29,,2013-02-20 06:52:00,
2013-02-19 23:02:00,33.0,-99.9,29.82,ENE,73,0.0,0.0,-999,0.00,,,0.29,,2013-02-20 07:02:00,
2013-02-19 23:11:00,33.0,-99.9,29.82,ENE,73,0.0,0.0,-999,0.00,,,0.29,,2013-02-20 07:11:00,
2013-02-19 23:21:00,33.0,-99.9,29.82,East,82,1.0,5.0,-999,0.00,,,0.29,,2013-02-20 07:21:00,
2013-02-19 23:32:00,33.0,-99.9,29.82,NE,49,0.0,0.0,-999,0.00,,,0.29,,2013-02-20 07:32:00,
2013-02-19 23:42:00,33.0,-99.9,29.82,NE,49,0.0,0.0,-999,0.00,,,0.29,,2013-02-20 07:42:00,
2013-02-19 23:52:00,33.0,-99.9,29.83,ENE,65,1.0,0.0,-999,0.00,,,0.29,,2013-02-20 07:52:00,